SL-14 DEB, 46466

Orbit data source: Space-Track

SL-14 DEB, 46466 is space debris in LEO originally from a launch on Thu, 15 Aug 1991 UTC launched from the Plesetsk Missile And Space Complex (PKMTR). Debris objects in space refer to the collection of defunct objects orbiting the Earth. Examples of debris include non-operational satellites, rocket bodies, and fragments generated from explosions, collisions, or faulty payload assembly.

Loading next visibility...
Identifier
46466, 1991-056DB
Orbit
LEO
Country
Flag of CISCIS
Related business
Manufacturer
Unknown
Mission
Spacecraft
Bus & Motor
Unknown
Mass
Unknown
Launch date (UTC)
1991-08-15 (34 years ago)
Launch vehicle
Unknown
Launch site
Plesetsk Missile And Space Complex (PKMTR)
Object type
Payload
Rocket body
Debris
Shape & HBR
Unknown shape, 0.1 m
Radar Cross Section
Small (<0.1 m²)

Expand to show TLE details & history
Last TLE update: 4 days ago

TLE from 4 days ago
0 SL-14 DEB
1 46466U 91056DB  26031.95306364  .00001037  00000-0  24598-2 0  9996
2 46466  82.5669 230.9937 0007987 344.4401  15.6478 13.22406866264717
Epoch: 2026-01-31T22:52Z
TLE epoch observation values (Epoch: 2026-01-31T22:52:24.698Z)
Latitude
Longitude
116.72113°
Altitude
1,172.546 km
Speed
7.27 km/s
True Right ascension
15h 23m 58s
True Declination
0° 00' 00"
Sunlit
Object was in daylight at epoch
Visualization orbit readout
Latitude
Unknown
Longitude
Unknown
Altitude
Unknown
Speed
Unknown
Apparent Right ascension
Unknown
Apparent Declination
Unknown
Sunlit
N/A
Visualization observer readout
Local Sidereal Time
02:23:03
Azimuth
Unknown
Elevation
Unknown
Doppler factor
Unknown
Orbital elements
Apogee altitude
1,178.808 km
Perigee altitude
1,166.746 km
Semi-major axis
7,550.914 km
Eccentricity
0.0008
Inclination
82.5669°
RAAN
230.9937°
Arg. of periapsis
344.4401°
True anomaly
15.67251°
Mean anomaly
15.6478°
Eccentric anomaly
15.66015°
Mean motion
3.30784 °/min
Orbital period
108.83 mins
BSTAR
0.0024598
Loading maneuver chart data...
Computing Atmospheric mass density...
Loading historical data...
Loading historical data...
Loading historical data...
Loading historical data...
Loading historical data...
Loading historical data...
Loading historical data...

Documentation

Showing up to 5 results
|